Notices

What's New in latest Release from April 7th, 2021:

- Updated Glossary, including Speed of Maximum Gust, and Total Hourly Precipitation

- Updated national and regional climate services offices contacts and prices information

- Addition of station inventory lists for 1981-2010, 1971-2000, and 1961-1990 Normals.

If you haven't already, please take our survey and provide feedback about our website: https://eccc.sondage-survey.ca/f/LanguageSelection.aspx?s=442ca660-fcf1-47c0-95a9-59707d6fd709

Hourly Data Report for April 08, 2004

TORONTO CITY
ONTARIO

43°40'00.000" N
79°24'00.000" W
112.50 m
6158355
71508
XTO

Download Data

Hourly Data (April 2004)
Hourly Data Report for April 8, 2004
TIME
LST
Temp Definition
°C
Dew Point Definition
°C
Rel Hum Definition
%
Precip. Amount Definition
mm

Wind Dir Definition
10's deg

Wind Spd Definition
km/h
Visibility Definition
km
Stn Press Definition
kPa
Hmdx Definition


Wind Chill Definition


Weather Definition


00:00 4.0 0.7 79   LegendMM LegendMM LegendMM 99.54     LegendNANA
01:00 3.8 0.5 79   LegendMM LegendMM LegendMM 99.51     LegendNANA
02:00 4.1 0.8 79   LegendMM LegendMM LegendMM 99.45     LegendNANA
03:00 3.2 1.3 87   LegendMM LegendMM LegendMM 99.39     LegendNANA
04:00 3.2 1.6 89   LegendMM LegendMM LegendMM 99.34     LegendNANA
05:00 3.4 1.3 86   LegendMM LegendMM LegendMM 99.34     LegendNANA
06:00 2.9 2.0 94   LegendMM LegendMM LegendMM 99.34     LegendNANA
07:00 3.1 2.1 93   LegendMM LegendMM LegendMM 99.33     LegendNANA
08:00 3.3 1.7 89   LegendMM LegendMM LegendMM 99.29     LegendNANA
09:00 5.0 2.4 83   LegendMM LegendMM LegendMM 99.30     LegendNANA
10:00 5.4 2.6 82   LegendMM LegendMM LegendMM 99.32     LegendNANA
11:00 9.7 3.5 65   LegendMM LegendMM LegendMM 99.25     LegendNANA
12:00 10.1 1.5 55   LegendMM LegendMM LegendMM 99.18     LegendNANA
13:00 10.1 2.0 57   LegendMM LegendMM LegendMM 99.13     LegendNANA
14:00 9.4 0.6 54   LegendMM LegendMM LegendMM 99.10     LegendNANA
15:00 7.9 1.1 62   LegendMM LegendMM LegendMM 99.08     LegendNANA
16:00 7.9 0.2 58   LegendMM LegendMM LegendMM 99.07     LegendNANA
17:00 7.7 -0.1 58   LegendMM LegendMM LegendMM 99.11     LegendNANA
18:00 7.9 0.4 59   LegendMM LegendMM LegendMM 99.17     LegendNANA
19:00 7.7 1.3 64   LegendMM LegendMM LegendMM 99.22     LegendNANA
20:00 8.2 2.9 69   LegendMM LegendMM LegendMM 99.30     LegendNANA
21:00 7.4 1.3 65   LegendMM LegendMM LegendMM 99.37     LegendNANA
22:00 6.3 -0.5 62   LegendMM LegendMM LegendMM 99.40     LegendNANA
23:00 4.9 -2.1 60   LegendMM LegendMM LegendMM 99.45     LegendNANA

Notes on Data Quality.

Legend

  • E = Estimated
  • M = Missing
  • NA = Not Available*
  • [empty] = Indicates an unobserved value
Date modified: